Time,TemperatureF,DewpointF,PressureIn,WindDirection,WindDirectionDegrees,WindSpeedMPH,WindSpeedGustMPH,Humidity,HourlyPrecipIn,Conditions,Clouds,dailyrainin,SoftwareType,DateUTC
2013-03-31 00:03:00,59.0,-99.9,30.17,West,269,0.0,0.0,86,0.00,,,0.00,,2013-03-31 04:03:00,
2013-03-31 00:13:00,59.0,55.0,30.17,West,269,0.0,0.0,86,0.00,,,0.00,,2013-03-31 04:13:00,
2013-03-31 00:23:00,58.0,54.0,30.16,West,269,0.0,0.0,86,0.00,,,0.00,,2013-03-31 04:23:00,
2013-03-31 00:33:00,58.0,54.0,30.16,West,269,0.0,0.0,88,0.00,,,0.00,,2013-03-31 04:33:00,
2013-03-31 00:42:00,58.0,54.0,30.16,West,269,0.0,0.0,88,0.00,,,0.00,,2013-03-31 04:42:00,
2013-03-31 00:52:00,57.0,54.0,30.16,West,269,1.0,2.0,89,0.00,,,0.00,,2013-03-31 04:52:00,
2013-03-31 01:02:00,57.0,54.0,30.16,West,269,0.0,0.0,89,0.00,,,0.00,,2013-03-31 05:02:00,
2013-03-31 01:13:00,57.0,54.0,30.16,West,269,0.0,0.0,89,0.00,,,0.00,,2013-03-31 05:13:00,
2013-03-31 01:22:00,57.0,54.0,30.15,West,269,0.0,2.0,89,0.00,,,0.00,,2013-03-31 05:22:00,
2013-03-31 01:32:00,57.0,54.0,30.15,West,269,0.0,0.0,89,0.00,,,0.00,,2013-03-31 05:32:00,
2013-03-31 01:42:00,57.0,54.0,30.15,West,269,0.0,0.0,89,0.00,,,0.00,,2013-03-31 05:42:00,
2013-03-31 01:53:00,57.0,54.0,30.15,West,269,0.0,0.0,89,0.00,,,0.00,,2013-03-31 05:53:00,
2013-03-31 02:02:00,56.0,53.0,30.15,West,269,0.0,0.0,89,0.00,,,0.00,,2013-03-31 06:02:00,
2013-03-31 02:12:00,56.0,53.0,30.15,West,269,0.0,0.0,89,0.00,,,0.00,,2013-03-31 06:12:00,
2013-03-31 02:23:00,56.0,53.0,30.14,East,96,0.0,2.0,91,0.00,,,0.00,,2013-03-31 06:23:00,
2013-03-31 02:33:00,56.0,54.0,30.14,ESE,108,0.0,2.0,92,0.00,,,0.00,,2013-03-31 06:33:00,
2013-03-31 02:42:00,56.0,54.0,30.14,ESE,108,0.0,2.0,92,0.00,,,0.00,,2013-03-31 06:42:00,
2013-03-31 02:52:00,56.0,54.0,30.14,ESE,108,0.0,0.0,92,0.00,,,0.00,,2013-03-31 06:52:00,
2013-03-31 03:02:00,56.0,53.0,30.14,ESE,108,0.0,0.0,91,0.00,,,0.00,,2013-03-31 07:02:00,
2013-03-31 03:12:00,56.0,53.0,30.14,ESE,108,0.0,0.0,91,0.00,,,0.00,,2013-03-31 07:12:00,
2013-03-31 03:22:00,56.0,54.0,30.14,ESE,108,0.0,0.0,92,0.00,,,0.00,,2013-03-31 07:22:00,
2013-03-31 03:33:00,56.0,54.0,30.13,ESE,108,0.0,1.0,92,0.00,,,0.00,,2013-03-31 07:33:00,
2013-03-31 03:43:00,56.0,54.0,30.13,ESE,108,0.0,1.0,92,0.00,,,0.00,,2013-03-31 07:43:00,
2013-03-31 03:52:00,56.0,54.0,30.12,ESE,120,1.0,3.0,93,0.00,,,0.00,,2013-03-31 07:52:00,
2013-03-31 04:02:00,56.0,54.0,30.11,SSE,155,1.0,2.0,94,0.00,,,0.00,,2013-03-31 08:02:00,
2013-03-31 04:12:00,56.0,54.0,30.11,SSE,155,1.0,2.0,94,0.00,,,0.00,,2013-03-31 08:12:00,
2013-03-31 04:22:00,57.0,56.0,30.11,SE,126,0.0,2.0,95,0.00,,,0.00,,2013-03-31 08:22:00,
2013-03-31 04:32:00,57.0,55.0,30.11,SE,126,0.0,0.0,94,0.00,,,0.00,,2013-03-31 08:32:00,
2013-03-31 04:42:00,57.0,55.0,30.11,SE,126,0.0,0.0,94,0.00,,,0.00,,2013-03-31 08:42:00,
2013-03-31 04:52:00,57.0,55.0,30.11,SE,126,0.0,1.0,93,0.00,,,0.00,,2013-03-31 08:52:00,
2013-03-31 05:02:00,57.0,55.0,30.11,ESE,116,1.0,2.0,92,0.00,,,0.00,,2013-03-31 09:02:00,
2013-03-31 05:12:00,57.0,55.0,30.11,ESE,116,1.0,2.0,92,0.00,,,0.00,,2013-03-31 09:12:00,
2013-03-31 05:22:00,57.0,55.0,30.11,ESE,122,0.0,2.0,92,0.00,,,0.00,,2013-03-31 09:22:00,
2013-03-31 05:33:00,57.0,54.0,30.11,East,92,1.0,3.0,91,0.00,,,0.00,,2013-03-31 09:33:00,
2013-03-31 05:42:00,57.0,54.0,30.11,East,92,1.0,3.0,91,0.00,,,0.00,,2013-03-31 09:42:00,
2013-03-31 05:53:00,57.0,54.0,30.11,East,88,1.0,2.0,91,0.00,,,0.00,,2013-03-31 09:53:00,
2013-03-31 06:03:00,58.0,55.0,30.11,SE,125,0.0,4.0,91,0.00,,,0.00,,2013-03-31 10:03:00,
2013-03-31 06:13:00,58.0,55.0,30.11,SE,125,0.0,4.0,91,0.00,,,0.00,,2013-03-31 10:13:00,
2013-03-31 06:24:00,58.0,55.0,30.11,SE,126,0.0,3.0,91,0.00,,,0.00,,2013-03-31 10:24:00,
2013-03-31 06:33:00,58.0,55.0,30.12,SE,126,0.0,3.0,90,0.00,,,0.00,,2013-03-31 10:33:00,
2013-03-31 06:42:00,58.0,55.0,30.12,SE,126,0.0,3.0,90,0.00,,,0.00,,2013-03-31 10:42:00,
2013-03-31 06:53:00,58.0,55.0,30.12,East,86,0.0,3.0,89,0.00,,,0.00,,2013-03-31 10:53:00,
2013-03-31 07:03:00,58.0,54.0,30.13,East,86,0.0,2.0,88,0.00,,,0.00,,2013-03-31 11:03:00,
2013-03-31 07:12:00,58.0,54.0,30.13,East,86,0.0,2.0,88,0.00,,,0.00,,2013-03-31 11:12:00,
2013-03-31 07:23:00,57.0,53.0,30.13,East,86,0.0,1.0,88,0.00,,,0.00,,2013-03-31 11:23:00,
2013-03-31 07:33:00,57.0,53.0,30.14,East,98,0.0,2.0,88,0.00,,,0.00,,2013-03-31 11:33:00,
2013-03-31 07:42:00,57.0,53.0,30.14,East,98,0.0,2.0,88,0.00,,,0.00,,2013-03-31 11:42:00,
2013-03-31 07:52:00,56.0,53.0,30.14,East,84,0.0,2.0,89,0.00,,,0.00,,2013-03-31 11:52:00,
2013-03-31 08:03:00,56.0,53.0,30.15,East,92,0.0,2.0,89,0.00,,,0.00,,2013-03-31 12:03:00,
2013-03-31 08:12:00,56.0,53.0,30.15,East,92,0.0,2.0,89,0.00,,,0.00,,2013-03-31 12:12:00,
2013-03-31 08:22:00,56.0,53.0,30.15,East,92,0.0,2.0,89,0.00,,,0.00,,2013-03-31 12:22:00,
2013-03-31 08:33:00,56.0,53.0,30.15,East,85,1.0,3.0,91,0.00,,,0.00,,2013-03-31 12:33:00,
2013-03-31 08:42:00,56.0,53.0,30.15,East,85,1.0,3.0,91,0.00,,,0.00,,2013-03-31 12:42:00,
2013-03-31 08:53:00,57.0,54.0,30.15,East,93,0.0,2.0,90,0.00,,,0.00,,2013-03-31 12:53:00,
2013-03-31 09:02:00,59.0,56.0,30.15,ESE,108,0.0,3.0,90,0.00,,,0.00,,2013-03-31 13:02:00,
2013-03-31 09:12:00,59.0,56.0,30.15,ESE,108,0.0,3.0,90,0.00,,,0.00,,2013-03-31 13:12:00,
2013-03-31 09:23:00,62.0,57.0,30.15,East,94,2.0,5.0,84,0.00,,,0.00,,2013-03-31 13:23:00,
2013-03-31 09:32:00,65.0,57.0,30.15,SE,136,2.0,6.0,76,0.00,,,0.00,,2013-03-31 13:32:00,
2013-03-31 09:42:00,65.0,57.0,30.15,SE,136,2.0,6.0,76,0.00,,,0.00,,2013-03-31 13:42:00,
2013-03-31 09:52:00,66.0,57.0,30.15,SSE,161,5.0,9.0,72,0.00,,,0.00,,2013-03-31 13:52:00,
2013-03-31 10:03:00,67.0,57.0,30.15,SE,134,4.0,8.0,70,0.00,,,0.00,,2013-03-31 14:03:00,
2013-03-31 10:12:00,67.0,57.0,30.15,SE,134,4.0,8.0,70,0.00,,,0.00,,2013-03-31 14:12:00,
2013-03-31 10:22:00,69.0,59.0,30.15,ESE,113,4.0,7.0,70,0.00,,,0.00,,2013-03-31 14:22:00,
2013-03-31 10:33:00,70.0,59.0,30.15,East,86,4.0,10.0,68,0.00,,,0.00,,2013-03-31 14:33:00,
2013-03-31 10:43:00,70.0,59.0,30.15,East,86,4.0,10.0,68,0.00,,,0.00,,2013-03-31 14:43:00,
2013-03-31 10:52:00,71.0,59.0,30.15,SW,232,2.0,10.0,66,0.00,,,0.00,,2013-03-31 14:52:00,
2013-03-31 11:03:00,73.0,57.0,30.15,ESE,102,2.0,12.0,58,0.00,,,0.00,,2013-03-31 15:03:00,
2013-03-31 11:13:00,73.0,57.0,30.15,ESE,102,2.0,12.0,58,0.00,,,0.00,,2013-03-31 15:13:00,
2013-03-31 11:23:00,74.0,57.0,30.15,SW,230,1.0,11.0,56,0.00,,,0.00,,2013-03-31 15:23:00,
2013-03-31 11:34:00,75.0,57.0,30.14,SSE,165,2.0,6.0,54,0.00,,,0.00,,2013-03-31 15:34:00,
2013-03-31 11:43:00,75.0,57.0,30.14,SSE,165,2.0,6.0,54,0.00,,,0.00,,2013-03-31 15:43:00,
2013-03-31 11:53:00,77.0,58.0,30.14,SW,228,2.0,12.0,52,0.00,,,0.00,,2013-03-31 15:53:00,
2013-03-31 12:03:00,77.0,57.0,30.14,SW,231,4.0,10.0,51,0.00,,,0.00,,2013-03-31 16:03:00,
2013-03-31 12:13:00,77.0,57.0,30.14,SW,231,4.0,10.0,51,0.00,,,0.00,,2013-03-31 16:13:00,
2013-03-31 12:23:00,77.0,58.0,30.13,South,186,2.0,9.0,52,0.00,,,0.00,,2013-03-31 16:23:00,
2013-03-31 12:33:00,78.0,57.0,30.14,SE,142,2.0,11.0,48,0.00,,,0.00,,2013-03-31 16:33:00,
2013-03-31 12:43:00,78.0,57.0,30.14,SE,142,2.0,11.0,48,0.00,,,0.00,,2013-03-31 16:43:00,
2013-03-31 12:53:00,79.0,57.0,30.14,NNW,346,2.0,9.0,47,0.00,,,0.00,,2013-03-31 16:53:00,
2013-03-31 13:03:00,78.0,53.0,30.14,SE,140,3.0,10.0,42,0.00,,,0.00,,2013-03-31 17:03:00,
2013-03-31 13:13:00,78.0,53.0,30.14,SE,140,3.0,10.0,42,0.00,,,0.00,,2013-03-31 17:13:00,
2013-03-31 13:23:00,80.0,53.0,30.13,SSW,198,2.0,10.0,40,0.00,,,0.00,,2013-03-31 17:23:00,
2013-03-31 13:32:00,81.0,53.0,30.12,SW,223,3.0,10.0,38,0.00,,,0.00,,2013-03-31 17:32:00,
2013-03-31 13:43:00,81.0,53.0,30.12,SW,223,3.0,10.0,38,0.00,,,0.00,,2013-03-31 17:43:00,
2013-03-31 13:52:00,80.0,53.0,30.11,South,185,2.0,13.0,40,0.00,,,0.00,,2013-03-31 17:52:00,
2013-03-31 14:03:00,79.0,54.0,30.10,West,274,4.0,11.0,42,0.00,,,0.00,,2013-03-31 18:03:00,
2013-03-31 14:13:00,79.0,54.0,30.10,West,274,4.0,11.0,42,0.00,,,0.00,,2013-03-31 18:13:00,
2013-03-31 14:22:00,77.0,51.0,30.10,SW,220,3.0,13.0,41,0.00,,,0.00,,2013-03-31 18:22:00,
2013-03-31 14:33:00,77.0,54.0,30.10,SSW,212,3.0,9.0,45,0.00,,,0.00,,2013-03-31 18:33:00,
2013-03-31 14:42:00,77.0,54.0,30.10,SSW,212,3.0,9.0,45,0.00,,,0.00,,2013-03-31 18:42:00,
2013-03-31 14:52:00,77.0,58.0,30.08,SE,132,2.0,16.0,52,0.00,,,0.00,,2013-03-31 18:52:00,
2013-03-31 15:03:00,77.0,57.0,30.08,SSW,200,2.0,10.0,51,0.00,,,0.00,,2013-03-31 19:03:00,
2013-03-31 15:12:00,77.0,57.0,30.08,SSW,200,2.0,10.0,51,0.00,,,0.00,,2013-03-31 19:12:00,
2013-03-31 15:22:00,78.0,57.0,30.06,ESE,112,1.0,11.0,48,0.00,,,0.00,,2013-03-31 19:22:00,
2013-03-31 15:33:00,77.0,56.0,30.06,SW,227,2.0,11.0,48,0.00,,,0.00,,2013-03-31 19:33:00,
2013-03-31 15:43:00,77.0,56.0,30.06,SW,227,2.0,11.0,48,0.00,,,0.00,,2013-03-31 19:43:00,
2013-03-31 15:53:00,76.0,57.0,30.06,SE,132,1.0,12.0,52,0.00,,,0.00,,2013-03-31 19:53:00,
2013-03-31 16:03:00,75.0,58.0,30.05,East,91,3.0,9.0,55,0.00,,,0.00,,2013-03-31 20:03:00,
2013-03-31 16:13:00,75.0,58.0,30.05,East,91,3.0,9.0,55,0.00,,,0.00,,2013-03-31 20:13:00,
2013-03-31 16:23:00,75.0,58.0,30.04,SE,144,2.0,8.0,55,0.00,,,0.00,,2013-03-31 20:23:00,
2013-03-31 16:34:00,77.0,59.0,30.03,SE,146,3.0,9.0,53,0.00,,,0.00,,2013-03-31 20:34:00,
2013-03-31 16:43:00,77.0,59.0,30.03,SE,146,3.0,9.0,53,0.00,,,0.00,,2013-03-31 20:43:00,
2013-03-31 16:52:00,76.0,58.0,30.03,SSW,203,3.0,11.0,54,0.00,,,0.00,,2013-03-31 20:52:00,
2013-03-31 17:03:00,74.0,58.0,30.03,WSW,256,4.0,9.0,58,0.00,,,0.00,,2013-03-31 21:03:00,
2013-03-31 17:13:00,74.0,58.0,30.03,WSW,256,4.0,9.0,58,0.00,,,0.00,,2013-03-31 21:13:00,
2013-03-31 17:22:00,74.0,58.0,30.02,SW,236,4.0,12.0,58,0.00,,,0.00,,2013-03-31 21:22:00,
2013-03-31 17:34:00,74.0,59.0,30.02,WSW,241,3.0,11.0,60,0.00,,,0.00,,2013-03-31 21:34:00,
2013-03-31 17:43:00,74.0,59.0,30.02,WSW,241,3.0,11.0,60,0.00,,,0.00,,2013-03-31 21:43:00,
2013-03-31 17:53:00,74.0,59.0,30.03,East,80,2.0,7.0,60,0.00,,,0.00,,2013-03-31 21:53:00,
2013-03-31 18:04:00,75.0,60.0,30.02,SSW,202,2.0,9.0,60,0.00,,,0.00,,2013-03-31 22:04:00,
2013-03-31 18:13:00,75.0,60.0,30.02,SSW,202,2.0,9.0,60,0.00,,,0.00,,2013-03-31 22:13:00,
2013-03-31 18:24:00,75.0,60.0,30.02,SSW,202,2.0,9.0,60,0.00,,,0.00,,2013-03-31 22:24:00,
2013-03-31 18:33:00,74.0,59.0,30.02,South,180,1.0,10.0,60,0.00,,,0.00,,2013-03-31 22:33:00,
2013-03-31 18:43:00,74.0,59.0,30.02,South,180,1.0,10.0,60,0.00,,,0.00,,2013-03-31 22:43:00,
2013-03-31 18:53:00,74.0,60.0,30.02,SSW,200,2.0,11.0,61,0.00,,,0.00,,2013-03-31 22:53:00,
2013-03-31 19:03:00,72.0,59.0,30.02,WSW,242,0.0,5.0,63,0.00,,,0.00,,2013-03-31 23:03:00,
2013-03-31 19:13:00,72.0,59.0,30.02,WSW,242,0.0,5.0,63,0.00,,,0.00,,2013-03-31 23:13:00,
2013-03-31 19:22:00,72.0,59.0,30.02,SW,219,1.0,8.0,63,0.00,,,0.00,,2013-03-31 23:22:00,
2013-03-31 19:33:00,71.0,59.0,30.02,SW,226,6.0,13.0,65,0.00,,,0.00,,2013-03-31 23:33:00,
2013-03-31 19:43:00,71.0,59.0,30.02,SW,226,6.0,13.0,65,0.00,,,0.00,,2013-03-31 23:43:00,
2013-03-31 19:53:00,70.0,59.0,30.02,SW,222,2.0,10.0,67,0.00,,,0.00,,2013-03-31 23:53:00,
2013-03-31 20:03:00,70.0,59.0,30.01,ESE,102,1.0,5.0,69,0.00,,,0.00,,2013-04-01 00:03:00,
2013-03-31 20:13:00,70.0,59.0,30.01,ESE,102,1.0,5.0,69,0.00,,,0.00,,2013-04-01 00:13:00,
2013-03-31 20:22:00,69.0,59.0,30.01,NW,305,0.0,7.0,70,0.00,,,0.00,,2013-04-01 00:22:00,
2013-03-31 20:32:00,68.0,58.0,30.01,SW,224,0.0,6.0,71,0.00,,,0.00,,2013-04-01 00:32:00,
2013-03-31 20:43:00,68.0,58.0,30.01,SW,224,0.0,6.0,71,0.00,,,0.00,,2013-04-01 00:43:00,
2013-03-31 20:52:00,68.0,59.0,30.01,SSW,211,1.0,6.0,72,0.00,,,0.00,,2013-04-01 00:52:00,
2013-03-31 21:03:00,68.0,59.0,30.01,SW,214,1.0,5.0,73,0.00,,,0.00,,2013-04-01 01:03:00,
2013-03-31 21:13:00,68.0,59.0,30.01,SW,214,1.0,5.0,73,0.00,,,0.00,,2013-04-01 01:13:00,
2013-03-31 21:23:00,68.0,59.0,30.01,SW,225,1.0,4.0,74,0.00,,,0.00,,2013-04-01 01:23:00,
2013-03-31 21:33:00,67.0,59.0,30.01,SW,219,1.0,4.0,75,0.00,,,0.00,,2013-04-01 01:33:00,
2013-03-31 21:42:00,67.0,59.0,30.01,SW,219,1.0,4.0,75,0.00,,,0.00,,2013-04-01 01:42:00,
2013-03-31 21:52:00,67.0,59.0,30.01,SW,226,0.0,1.0,75,0.00,,,0.00,,2013-04-01 01:52:00,
2013-03-31 22:03:00,67.0,59.0,30.01,SW,228,0.0,2.0,76,0.00,,,0.00,,2013-04-01 02:03:00,
2013-03-31 22:13:00,67.0,59.0,30.01,SW,228,0.0,2.0,76,0.00,,,0.00,,2013-04-01 02:13:00,
2013-03-31 22:23:00,67.0,59.0,30.01,SW,228,0.0,2.0,76,0.00,,,0.00,,2013-04-01 02:23:00,
2013-03-31 22:33:00,66.0,59.0,30.02,West,280,1.0,3.0,78,0.00,,,0.00,,2013-04-01 02:33:00,
2013-03-31 22:42:00,66.0,59.0,30.02,West,280,1.0,3.0,78,0.00,,,0.00,,2013-04-01 02:42:00,
2013-03-31 22:53:00,66.0,59.0,30.03,West,259,0.0,1.0,79,0.00,,,0.00,,2013-04-01 02:53:00,
2013-03-31 23:03:00,66.0,60.0,30.03,WSW,254,0.0,4.0,80,0.00,,,0.00,,2013-04-01 03:03:00,
2013-03-31 23:12:00,66.0,60.0,30.03,WSW,254,0.0,4.0,80,0.00,,,0.00,,2013-04-01 03:12:00,
2013-03-31 23:23:00,66.0,60.0,30.03,SW,222,2.0,4.0,81,0.00,,,0.00,,2013-04-01 03:23:00,
2013-03-31 23:34:00,66.0,60.0,30.03,WNW,288,0.0,3.0,81,0.00,,,0.00,,2013-04-01 03:34:00,
2013-03-31 23:43:00,66.0,60.0,30.03,WNW,288,0.0,3.0,81,0.00,,,0.00,,2013-04-01 03:43:00,
2013-03-31 23:53:00,67.0,61.0,30.02,WSW,246,0.0,3.0,81,0.00,,,0.00,,2013-04-01 03:53:00,